This demonstration page uses our WeatherBlox Daily Observations layout. Learn more.

Left ArrowRight Arrow

34.74481, -87.66753

Hourly Observations for July 22, 2020

Temp ( °F °C ) Dew Point ( °F °C ) Humidity (%) Winds ( mph kmh ) Pressure ( in mb ) Visibility ( mi km ) Precip ( " mm )
12:53 am 00:53 Clear 75 23.9 72 22.2 90 90 Calm 30.03 1017 10 16 0.00 0.00
1:53 am 01:53 Clear 75 23.9 72 22.2 90 90 ESE 3 6 30.03 1017 10 16 0.00 0.00
2:53 am 02:53 Clear 75 23.9 72 22.2 90 90 Calm 30.02 1017 7 11 0.00 0.00
3:53 am 03:53 Clear with Mist and Fog 74 23.3 71 21.7 91 91 Calm 30.04 1017 6 10 0.00 0.00
4:53 am 04:53 Clear with Mist and Fog 74 23.3 71 21.7 91 91 Calm 30.04 1017 5 8 0.00 0.00
5:53 am 05:53 Clear with Mist and Fog 73 22.8 71 21.7 94 94 Calm 30.05 1018 4 6 0.00 0.00
6:53 am 06:53 Sunny with Mist and Fog 75 23.9 72 22.2 90 90 Calm 30.07 1018 6 10 0.00 0.00
7:53 am 07:53 Sunny 78 25.6 72 22.2 82 82 Calm 30.08 1019 10 16 0.00 0.00
8:53 am 08:53 Sunny 83 28.3 74 23.3 74 74 S 6 9 30.08 1019 10 16 0.00 0.00
9:53 am 09:53 Partly Cloudy 88 31.1 76 24.4 68 68 VRB 6 9 30.09 1019 10 16 0.00 0.00
10:53 am 10:53 Mostly Sunny 90 32.2 74 23.3 59 59 VRB 6 9 30.08 1019 10 16 0.00 0.00
11:53 am 11:53 Mostly Cloudy 91 32.8 75 23.9 59 59 Calm 30.08 1019 10 16 0.00 0.00
12:40 pm 12:40 Mostly Cloudy with Thunderstorms 85 29.4 74 23.3 70 70 SSE 15 24 30.05 1018 10 16 0.00 0.00
12:53 pm 12:53 Mostly Cloudy with Nearby Thunderstorms 87 30.6 69 20.6 55 55 SSE 6 9 30.06 1018 10 16 0.00 0.00
1:01 pm 13:01 Mostly Cloudy with Thunderstorms 86 30 72 22.2 63 63 WSW 14 22 30.06 1018 10 16 0.00 0.00
1:15 pm 13:15 Mostly Cloudy with Strong Thunderstorms 79 26.1 69 20.6 72 72 SW 13 20 30.08 1018 3 4 0.01 0.25
1:29 pm 13:29 Cloudy with Rain 79 26.1 71 21.7 77 77 WNW 6 9 30.06 1018 5 8 0.03 0.76
1:38 pm 13:38 Mostly Cloudy with Nearby Thunderstorms 80 26.7 72 22.2 76 76 E 5 7 30.04 1017 9 14 0.05 1.27
1:53 pm 13:53 Mostly Cloudy with Nearby Thunderstorms 81 27.2 74 23.3 79 79 ESE 6 9 30.05 1018 10 16 0.08 2.03
2:13 pm 14:13 Mostly Sunny 87 30.6 72 22.2 61 61 ESE 6 9 30.03 1017 10 16 0.05 1.27
2:53 pm 14:53 Partly Cloudy with Nearby Thunderstorms 87 30.6 73 22.8 63 63 E 7 11 30.03 1017 10 16 0.06 1.52
3:10 pm 15:10 Sunny 89 31.7 72 22.2 57 57 VRB 3 6 30.01 1016 10 16 0.00 0.00
3:24 pm 15:24 Sunny with Nearby Thunderstorms 88 31.1 72 22.2 59 59 VRB 5 7 30.01 1016 10 16 0.00 0.00
4:53 pm 16:53 Partly Cloudy with Nearby Thunderstorms 82 27.8 77 25 85 85 NNW 3 6 30.04 1017 10 16 0.00 0.00
5:11 pm 17:11 Sunny 82 27.8 76 24.4 82 82 W 5 7 30.03 1017 10 16 0.00 0.00
5:53 pm 17:53 Sunny 80 26.7 74 23.3 82 82 Calm 30.04 1017 10 16 0.00 0.00
6:53 pm 18:53 Sunny 79 26.1 73 22.8 82 82 NNW 3 6 30.04 1017 10 16 0.00 0.00
7:53 pm 19:53 Sunny 78 25.6 74 23.3 87 87 WNW 3 6 30.05 1018 10 16 0.00 0.00
8:53 pm 20:53 Clear 78 25.6 73 22.8 85 85 Calm 30.06 1018 10 16 0.00 0.00
9:53 pm 21:53 Clear 77 25 73 22.8 88 88 Calm 30.07 1018 10 16 0.00 0.00
10:53 pm 22:53 Clear 76 24.4 73 22.8 91 91 Calm 30.08 1019 10 16 0.00 0.00
11:53 pm 23:53 Mostly Clear 76 24.4 73 22.8 91 91 Calm 30.07 1018 10 16 0.00 0.00

Powered by AerisWeather